Montreal Mirabel, Quebec

3:56 AM EDT on April 22, 2018 (GMT -0400)
Montreal Mirabel

Weather History for CYMX - March, 2014

Change the Weather History Date:

Tuesday, March 4, 2014

  Actual Average Record
Temperature  
Mean Temperature 2 °F -  
Max Temperature 10 °F 27 °F 41 °F (1999)
Min Temperature -5 °F 11 °F -14 °F (2003)
Degree Days  
Heating Degree Days 62    
Moisture  
Dew Point -7 °F    
Average Humidity 63    
Maximum Humidity 85    
Minimum Humidity 51    
Precipitation  
Precipitation 0.00 in - - ()
Sea Level Pressure  
Sea Level Pressure 30.33 in    
Wind  
Wind Speed 6 mph ()    
Max Wind Speed 12 mph    
Max Gust Speed -    
Visibility 5.2 miles    
Events Snow    
Averages and records for this station are not official NWS values.
T = Trace of Precipitation, MM = Missing Value Source: Averaged Metar Reports

Daily Weather History Graph

Daily Weather History Graph

Search for Another Location

Airport or City:

Astronomy

Mar. 04, 2014 Rise Set
Actual Time 6:29 AM EST 5:47 PM EST
Civil Twilight 5:59 AM EST 6:16 PM EST
Nautical Twilight 5:25 AM EST 6:51 PM EST
Astronomical Twilight 4:50 AM EST 7:25 PM EST
Moon 8:01 AM EST (3/4) 10:05 PM EST (3/4)
Length of Visible Light 12h 17m
Length of Day
11h 17m
Waxing Crescent, 14% of the Moon is Illuminated
Mar 4
Waxing Crescent
Mar 8
First Quarter
Mar 16
Full
Mar 23
Last Quarter
Mar 30
New

Hourly Weather History & Observations

Time (EST) Temp. Windchill Dew Point Humidity Pressure Visibility Wind Dir Wind Speed Gust Speed Precip Events Conditions
12:00 AM -0.4 °F -13.4 °F -14.8 °F 51% 30.32 in 25.0 mi WSW 6.9 mph - N/A   Clear
1:00 AM -0.4 °F -13.4 °F -14.8 °F 51% 30.32 in 25.0 mi SW 6.9 mph - N/A   Clear
2:00 AM -2.2 °F -14.2 °F -14.8 °F 55% 30.32 in 25.0 mi SW 5.8 mph - N/A   Clear
3:00 AM -4.0 °F -14.6 °F -16.6 °F 55% 30.32 in 25.0 mi WSW 4.6 mph - N/A   Clear
4:00 AM -5.8 °F -16.7 °F -16.6 °F 60% 30.32 in 25.0 mi SW 4.6 mph - N/A   Clear
5:00 AM -5.8 °F -19.9 °F -16.6 °F 60% 30.33 in 25.0 mi WSW 6.9 mph - N/A   Clear
6:00 AM -5.8 °F -21.2 °F -16.6 °F 60% 30.33 in 25.0 mi WSW 8.1 mph - N/A   Partly Cloudy
7:00 AM -5.8 °F -19.9 °F -16.6 °F 60% 30.35 in 25.0 mi WSW 6.9 mph - N/A   Mostly Cloudy
8:00 AM -4.0 °F -17.8 °F -14.8 °F 60% 30.36 in 45.0 mi WSW 6.9 mph - N/A   Mostly Cloudy
9:00 AM -0.4 °F -13.4 °F -13.0 °F 55% 30.37 in 25.0 mi WSW 6.9 mph - N/A   Mostly Cloudy
10:00 AM 1.4 °F -11.3 °F -11.2 °F 56% 30.36 in 25.0 mi WSW 6.9 mph - N/A   Mostly Cloudy
11:00 AM 5.0 °F -9.1 °F -9.4 °F 52% 30.35 in 30.0 mi WSW 9.2 mph - N/A   Mostly Cloudy
12:00 PM 6.8 °F -4.8 °F -5.8 °F 56% 30.34 in 30.0 mi SW 6.9 mph - N/A   Overcast
1:00 PM 8.6 °F -2.6 °F -5.8 °F 52% 30.33 in 30.0 mi SW 6.9 mph - N/A   Overcast
2:00 PM 10.4 °F -3.3 °F -4.0 °F 52% 30.31 in 30.0 mi SW 10.4 mph - N/A   Overcast
2:19 PM 10.4 °F -2.4 °F -4.0 °F 52% 30.31 in 10.0 mi SW 9.2 mph - N/A Snow Light Snow
3:00 PM 10.4 °F -4.1 °F -2.2 °F 57% 30.32 in 5.0 mi SW 11.5 mph - N/A Snow Light Snow
4:00 PM 8.6 °F -2.6 °F -0.4 °F 67% 30.32 in 3.0 mi SW 6.9 mph - N/A Snow Light Snow
5:00 PM 8.6 °F -2.6 °F 1.4 °F 73% 30.33 in 3.0 mi WSW 6.9 mph - N/A Snow Light Snow
6:00 PM 8.6 °F 2.0 °F 3.2 °F 79% 30.34 in 4.0 mi SW 3.5 mph - N/A Snow Light Snow
7:00 PM 8.6 °F 0.1 °F 3.2 °F 79% 30.34 in 4.0 mi SSW 4.6 mph - N/A Snow Light Snow
8:00 PM 8.6 °F 2.0 °F 3.2 °F 79% 30.33 in 6.0 mi SW 3.5 mph - N/A Snow Light Snow
9:00 PM 8.6 °F - 3.2 °F 79% 30.33 in 6.0 mi NW 2.3 mph - N/A Snow Light Snow
10:00 PM 6.8 °F - 3.2 °F 85% 30.33 in 6.0 mi Calm Calm - N/A Snow Light Snow
11:00 PM 6.8 °F - 3.2 °F 85% 30.33 in 5.0 mi Calm Calm - N/A Snow Light Snow